| time (UTC) | temp C | wind direction | speed KPH | gust KPH | rain 1hr cm | rain 24hr cm | rain mn cm | humidity % | barometer mb |
| 20260504050014 | 8 | 221 | 8.0 | 17.7 | 0.03 | 0.05 | 0.03 | 88 | 1007.5 |
| 20260504044510 | 8 | 238 | 9.7 | 25.7 | 0.03 | 0.03 | 0.00 | 87 | 1007.8 |
| 20260504043008 | 8 | 239 | 16.1 | 29.0 | 0.03 | 0.03 | 0.00 | 88 | 1007.9 |
| 20260504041509 | 8 | 243 | 14.5 | 27.4 | 0.03 | 0.03 | 0.00 | 89 | 1008.2 |
| 20260504040002 | 8 | 243 | 9.7 | 17.7 | 0.03 | 0.03 | 0.03 | 88 | 1008.2 |
| 20260504034501 | 8 | 249 | 4.8 | 14.5 | 0.00 | 0.00 | 0.00 | 86 | 1008.2 |
| 20260504033100 | 8 | 254 | 9.7 | 17.7 | 0.00 | 0.00 | 0.00 | 85 | 1008.2 |
| 20260504031558 | 8 | 252 | 8.0 | 19.3 | 0.00 | 0.00 | 0.00 | 84 | 1008.3 |
| 20260504030057 | 8 | 233 | 11.3 | 24.1 | 0.00 | 0.00 | 0.00 | 83 | 1008.4 |
| 20260504024615 | 8 | 200 | 16.1 | 25.7 | 0.00 | 0.00 | 0.00 | 81 | 1008.5 |
| 20260504023056 | 8 | 248 | 12.9 | 27.4 | 0.00 | 0.00 | 0.00 | 79 | 1008.4 |
| 20260504021555 | 7 | 233 | 16.1 | 27.4 | 0.00 | 0.00 | 0.00 | 77 | 1008.6 |
| 20260504020056 | 7 | 190 | 11.3 | 24.1 | 0.00 | 0.00 | 0.00 | 78 | 1008.6 |
| 20260504014604 | 7 | 179 | 9.7 | 17.7 | 0.00 | 0.00 | 0.00 | 77 | 1008.6 |
| 20260504013056 | 7 | 208 | 6.4 | 12.9 | 0.00 | 0.00 | 0.00 | 76 | 1008.6 |
| 20260504011552 | 7 | 204 | 4.8 | 11.3 | 0.00 | 0.00 | 0.00 | 72 | 1008.7 |
| 20260504010055 | 7 | 204 | 4.8 | 9.7 | 0.00 | 0.00 | 0.00 | 71 | 1008.6 |
| 20260504004551 | 7 | 184 | 4.8 | 8.0 | 0.00 | 0.00 | 0.00 | 70 | 1008.6 |
| 20260504003054 | 8 | 211 | 9.7 | 17.7 | 0.00 | 0.00 | 0.00 | 62 | 1008.9 |
| 20260504001550 | 8 | 217 | 11.3 | 19.3 | 0.00 | 0.00 | 0.00 | 58 | 1008.6 |
| 20260504000116 | 8 | 225 | 12.9 | 20.9 | 0.00 | 0.00 | 0.00 | 56 | 1008.5 |
| 20260503234554 | 8 | 248 | 11.3 | 24.1 | 0.00 | 0.00 | 0.00 | 55 | 1008.5 |
| 20260503233047 | 8 | 225 | 11.3 | 19.3 | 0.00 | 0.00 | 0.00 | 53 | 1008.5 |
| 20260503231546 | 9 | 237 | 14.5 | 24.1 | 0.00 | 0.00 | 0.00 | 51 | 1008.5 |
| 20260503230046 | 10 | 238 | 11.3 | 20.9 | 0.00 | 0.00 | 0.00 | 50 | 1008.6 |
| 20260503224545 | 10 | 247 | 12.9 | 22.5 | 0.00 | 0.00 | 0.00 | 48 | 1008.5 |
| 20260503223044 | 10 | 159 | 9.7 | 25.7 | 0.00 | 0.00 | 0.00 | 47 | 1008.5 |
| 20260503221550 | 11 | 225 | 17.7 | 32.2 | 0.00 | 0.00 | 0.00 | 42 | 1008.6 |
| 20260503220042 | 11 | 222 | 11.3 | 33.8 | 0.00 | 0.00 | 0.00 | 41 | 1008.6 |
| 20260503214543 | 11 | 264 | 20.9 | 35.4 | 0.00 | 0.00 | 0.00 | 40 | 1008.7 |
| 20260503213038 | 11 | 236 | 17.7 | 33.8 | 0.00 | 0.00 | 0.00 | 41 | 1008.8 |
| 20260503211539 | 11 | 219 | 14.5 | 27.4 | 0.00 | 0.00 | 0.00 | 52 | 1008.8 |
| 20260503210036 | 11 | 225 | 20.9 | 35.4 | 0.00 | 0.00 | 0.00 | 49 | 1008.9 |
| 20260503204533 | 10 | 223 | 17.7 | 33.8 | 0.00 | 0.00 | 0.00 | 53 | 1009.1 |
| 20260503203041 | 10 | 243 | 20.9 | 35.4 | 0.00 | 0.00 | 0.00 | 51 | 1009.3 |
| 20260503201534 | 10 | 243 | 17.7 | 35.4 | 0.00 | 0.00 | 0.00 | 52 | 1009.3 |
| 20260503200028 | 10 | 239 | 22.5 | 40.2 | 0.00 | 0.00 | 0.00 | 49 | 1009.5 |
| 20260503194526 | 10 | 226 | 20.9 | 37.0 | 0.00 | 0.00 | 0.00 | 48 | 1009.8 |
| 20260503193025 | 10 | 228 | 14.5 | 37.0 | 0.00 | 0.00 | 0.00 | 47 | 1009.9 |
| 20260503191522 | 10 | 251 | 14.5 | 30.6 | 0.00 | 0.00 | 0.00 | 47 | 1010.2 |
| 20260503190021 | 10 | 266 | 19.3 | 37.0 | 0.00 | 0.00 | 0.00 | 45 | 1010.3 |
| 20260503184522 | 10 | 216 | 19.3 | 35.4 | 0.00 | 0.00 | 0.00 | 43 | 1010.5 |
| 20260503183020 | 10 | 231 | 20.9 | 37.0 | 0.00 | 0.00 | 0.00 | 43 | 1010.6 |
| 20260503181517 | 10 | 212 | 20.9 | 37.0 | 0.00 | 0.00 | 0.00 | 45 | 1010.7 |
| 20260503180024 | 10 | 257 | 17.7 | 29.0 | 0.00 | 0.00 | 0.00 | 47 | 1010.7 |
| 20260503174516 | 10 | 292 | 12.9 | 24.1 | 0.00 | 0.00 | 0.00 | 45 | 1010.8 |
| 20260503173023 | 10 | 225 | 16.1 | 29.0 | 0.00 | 0.00 | 0.00 | 43 | 1010.9 |
| 20260503171509 | 10 | 233 | 11.3 | 29.0 | 0.00 | 0.00 | 0.00 | 48 | 1011.0 |
| 20260503081517 | 4 | 316 | 3.2 | 11.3 | 0.00 | 0.00 | 0.00 | 72 | 1012.7 |
| 20260503071503 | 5 | 271 | 4.8 | 12.9 | 0.00 | 0.00 | 0.00 | 73 | 1012.6 |
| 20260503060109 | 5 | 266 | 4.8 | 12.9 | 0.00 | 0.00 | 0.00 | 75 | 1012.9 |
| 20260503054603 | 5 | 256 | 3.2 | 6.4 | 0.00 | 0.00 | 0.00 | 77 | 1012.8 |